Location: Newark
(37.3186°N, 13.6631°E)
Time: 08:12:20
(UTC+00:00)

ISS - Pass Details

Date: 23 November 2019
Orbit: 411 x 421 km, 51.6° (Epoch: 15 December)

Event Time Altitude Azimuth Distance (km) Brightness Sun altitude
Rises 16:33:53 0° 225° (SW) 2,339 1.4 -8.8°
Reaches altitude 10° 16:35:57 10° 224° (SW) 1,482 0.1 -9.2°
Maximum altitude 16:39:17 78° 139° (SE) 430 -3.8 -9.8°
Enters shadow 16:42:03 14° 53° (NE) 1,264 -1.9 -10.3°
